Location: Newark
(39.7199°N, 6.8858°W)
Time: 10:39:45
(UTC+00:00)

ISS - Visible Passes

Search period start: 22 November 2019 00:00
Search period end: 02 December 2019 00:00
Orbit: 412 x 421 km, 51.6° (Epoch: 22 November)

Date Brightness Start Highest point End Pass type
(mag) Time Alt. Az. Time Alt. Az. Time Alt. Az.
22 Nov -3.2 18:59:47 10° WSW 19:02:48 57° WNW 19:02:48 57° WNW visible
23 Nov -3.8 18:11:21 10° SW 18:14:41 77° SE 18:16:34 24° ENE visible
23 Nov -0.4 19:49:14 10° WNW 19:49:29 11° WNW 19:49:29 11° WNW visible
24 Nov -2.1 19:00:16 10° W 19:03:09 26° NNW 19:03:09 26° NNW visible
25 Nov -2.7 18:11:27 10° WSW 18:14:37 39° NNW 18:16:46 18° NNE visible
26 Nov -1.3 19:01:15 10° WNW 19:03:13 16° NNW 19:03:13 16° NNW visible
27 Nov -1.7 18:12:08 10° WNW 18:14:42 20° NNW 18:16:43 13° NNE visible
28 Nov -1.0 19:02:25 10° NNW 19:03:04 11° NNW 19:03:04 11° NNW visible
29 Nov -1.3 18:13:12 10° NW 18:14:56 13° NNW 18:16:30 11° NNE visible
01 Dec -1.3 18:14:14 10° NNW 18:15:14 11° N 18:16:14 10° NNE visible
